Location: Unspecified
(0.0000°N, 0.0000°E)
Time: 22:22:44
(UTC+00:00)

ZACube-1 - Visible Passes

Search period start: 13 October 2019 00:00
Search period end: 23 October 2019 00:00
Orbit: 584 x 667 km, 97.6° (Epoch: 13 October)

Date Brightness Start Highest point End Pass type
(mag) Time Alt. Az. Time Alt. Az. Time Alt. Az.
13 Oct ? 04:58:49 10° E 04:59:44 11° ESE 05:00:39 10° ESE visible
13 Oct ? 18:42:00 10° SSW 18:45:18 23° WSW 18:48:34 10° NW visible
14 Oct ? 05:15:23 10° NE 05:18:41 20° ESE 05:21:58 10° SSE visible
14 Oct ? 19:02:35 10° SW 19:04:14 12° WSW 19:05:53 10° WNW visible
16 Oct ? 18:02:00 10° S 18:06:09 90° SW 18:10:16 10° N visible
17 Oct ? 18:21:09 10° S 18:25:06 44° WSW 18:29:02 10° NNW visible
18 Oct ? 04:57:46 10° E 04:58:34 10° ESE 04:59:22 10° ESE visible
18 Oct ? 18:40:45 10° SSW 18:44:02 23° WSW 18:47:20 10° NW visible
19 Oct ? 05:14:14 10° NE 05:17:30 19° ESE 05:20:46 10° SSE visible
19 Oct ? 19:01:16 10° SW 19:02:58 12° WSW 19:04:41 10° WNW visible
21 Oct ? 18:00:44 10° SSE 18:04:52 89° ENE 18:09:00 10° N visible
22 Oct ? 18:19:52 10° S 18:23:49 45° WSW 18:27:47 10° NNW visible
